Back to catalog

STARLINK-30983

AliveCommunicationsVLEO
NORAD 58514·PAYLOAD·🇺🇸 United States

Launched Dec 7, 2023 from Cape Canaveral Space Force Station

Loading…

Next Passes (next 24 hours)

TLE

FreshSource: CelesTrak SupGP

Epoch: Sep 15, 2026, 02:30 UTC

1 58514C 23191G   26258.10465278  .00051757  00000+0  18742-2 0  2581
2 58514  43.0021 113.7510 0001524 272.7174 299.6342 15.27559944    12

Track STARLINK-30983 in real time with AllMySat

Download on the App Store